Marshall, MI

9:49 PM EDT on May 22, 2018 (GMT -0400)
Brooks

Weather History for KRMY - February, 2013

Change the Weather History Date:

Tuesday, February 19, 2013

  Actual Average (KBTL) Record (KBTL)
Temperature  
Mean Temperature 30 °F -  
Max Temperature 44 °F 33 °F 64 °F (2017)
Min Temperature 16 °F 20 °F -10 °F (2015)
Degree Days  
Heating Degree Days 35    
Moisture  
Dew Point 21 °F    
Average Humidity 83    
Maximum Humidity 90    
Minimum Humidity 73    
Precipitation  
Precipitation 0.00 in - - ()
Sea Level Pressure  
Sea Level Pressure 29.68 in    
Wind  
Wind Speed 19 mph (WSW)    
Max Wind Speed 25 mph    
Max Gust Speed 33 mph    
Visibility 7 miles    
Events Rain , Snow    
Averages and records for this station are not official NWS values.
T = Trace of Precipitation, MM = Missing Value Source: NWS Daily Summary

Daily Weather History Graph

Daily Weather History Graph

Search for Another Location

Airport or City:

Astronomy

Feb. 19, 2013 Rise Set
Actual Time 7:30 AM EST 6:17 PM EST
Civil Twilight 7:01 AM EST 6:46 PM EST
Nautical Twilight 6:28 AM EST 7:19 PM EST
Astronomical Twilight 5:56 AM EST 7:51 PM EST
Moon 12:45 PM EST (2/19) 3:04 AM EST (2/19)
Length of Visible Light 11h 44m
Length of Day
10h 47m
Waxing Gibbous, 67% of the Moon is Illuminated
Feb 19
Waxing Gibbous
Feb 25
Full
Mar 4
Last Quarter
Mar 11
New
Mar 19
First Quarter

Hourly Weather History & Observations

Time (EST) Temp. Windchill Dew Point Humidity Pressure Visibility Wind Dir Wind Speed Gust Speed Precip Events Conditions
12:13 AM 43.9 °F 35.4 °F 40.1 °F 87% 29.49 in 10.0 mi South 20.7 mph 27.6 mph N/A Rain Light Rain
12:33 AM 44.1 °F 36.5 °F 40.3 °F 87% 29.48 in 10.0 mi South 17.3 mph 27.6 mph N/A   Light Drizzle
12:54 AM 43.9 °F 35.7 °F 40.1 °F 87% 29.46 in 10.0 mi South 19.6 mph 28.8 mph N/A Rain Rain
1:13 AM 44.1 °F 36.2 °F 40.1 °F 86% 29.45 in 10.0 mi South 18.4 mph 29.9 mph N/A Rain Light Rain
1:33 AM 43.7 °F 35.7 °F 40.1 °F 87% 29.43 in 10.0 mi South 18.4 mph 26.5 mph N/A Rain Light Rain
1:54 AM 43.3 °F 35.5 °F 39.9 °F 88% 29.42 in 10.0 mi South 17.3 mph 26.5 mph N/A Rain Light Rain
2:13 AM 43.0 °F 35.7 °F 39.9 °F 89% 29.41 in 10.0 mi South 15.0 mph 24.2 mph N/A Rain Light Rain
2:33 AM 43.0 °F 35.4 °F 40.1 °F 90% 29.40 in 10.0 mi South 16.1 mph 24.2 mph N/A Rain Light Rain
2:54 AM 43.0 °F 35.7 °F 40.3 °F 90% 29.39 in 10.0 mi SSW 15.0 mph 21.9 mph N/A Rain Light Rain
3:13 AM 37.8 °F 27.1 °F 34.7 °F 89% 29.43 in 7.0 mi West 21.9 mph 32.2 mph N/A Rain Rain
3:33 AM 35.8 °F 25.1 °F 33.1 °F 90% 29.45 in 5.0 mi West 19.6 mph 29.9 mph N/A Rain Light Rain
3:54 AM 34.9 °F 24.9 °F 32.0 °F 89% 29.47 in 10.0 mi West 16.1 mph 29.9 mph N/A Snow Light Snow
4:13 AM 34.7 °F 24.7 °F 31.8 °F 89% 29.48 in 10.0 mi West 16.1 mph 27.6 mph N/A Snow Light Snow
4:33 AM 33.8 °F 21.0 °F 31.3 °F 90% 29.49 in 10.0 mi West 25.3 mph 33.4 mph N/A   Overcast
4:54 AM 32.5 °F 19.9 °F 29.8 °F 90% 29.50 in 10.0 mi WSW 23.0 mph 29.9 mph N/A   Overcast
5:13 AM 32.2 °F 19.7 °F 29.3 °F 89% 29.50 in 10.0 mi West 21.9 mph 27.6 mph N/A   Overcast
5:33 AM 31.5 °F 19.4 °F 28.4 °F 88% 29.51 in 7.0 mi West 19.6 mph 29.9 mph N/A   Overcast
5:54 AM 30.6 °F 17.6 °F 27.7 °F 89% 29.52 in 7.0 mi WSW 21.9 mph 28.8 mph N/A   Overcast
6:13 AM 29.8 °F 16.3 °F 26.8 °F 88% 29.53 in 7.0 mi WSW 23.0 mph 32.2 mph N/A   Overcast
6:54 AM 27.9 °F 14.7 °F 25.2 °F 90% 29.56 in 10.0 mi WSW 19.6 mph 27.6 mph N/A   Overcast
7:13 AM 26.8 °F 13.3 °F 24.1 °F 90% 29.57 in 10.0 mi WSW 19.6 mph 28.8 mph N/A   Overcast
7:33 AM 26.1 °F 12.0 °F 23.0 °F 88% 29.58 in 7.0 mi WSW 20.7 mph 27.6 mph N/A   Overcast
7:53 AM 25.0 °F 9.9 °F 21.7 °F 87% 29.59 in 5.0 mi WSW 23.0 mph 31.1 mph N/A   Overcast
8:13 AM 23.9 °F 10.8 °F 20.8 °F 88% 29.60 in 7.0 mi WSW 16.1 mph 27.6 mph N/A   Overcast
8:34 AM 23.9 °F 10.3 °F 20.7 °F 87% 29.61 in 7.0 mi WSW 17.3 mph 23.0 mph N/A Snow Light Snow
8:53 AM 23.4 °F 8.4 °F 19.8 °F 86% 29.62 in 3.0 mi WSW 20.7 mph 31.1 mph N/A Snow Light Snow
9:13 AM 23.2 °F 8.6 °F 19.6 °F 86% 29.63 in 1.5 mi WSW 19.6 mph 27.6 mph N/A Snow Light Snow
9:34 AM 22.6 °F 7.9 °F 18.9 °F 85% 29.64 in 0.8 mi WSW 19.6 mph 26.5 mph N/A Snow Light Snow
9:53 AM 22.1 °F 7.2 °F 18.1 °F 85% 29.65 in 1.8 mi WSW 19.6 mph 24.2 mph N/A Snow Light Snow
10:13 AM 21.9 °F 6.2 °F 16.5 °F 80% 29.66 in 7.0 mi WSW 21.9 mph 29.9 mph N/A Snow Light Snow
10:33 AM 21.4 °F 5.8 °F 15.4 °F 78% 29.66 in 4.0 mi WSW 20.7 mph 29.9 mph N/A Snow Light Snow
10:54 AM 21.4 °F 7.1 °F 16.3 °F 81% 29.67 in 3.0 mi WSW 17.3 mph 26.5 mph N/A Snow Light Snow
11:14 AM 20.7 °F 4.9 °F 14.7 °F 78% 29.67 in 3.0 mi WSW 20.7 mph 29.9 mph N/A Snow Light Snow
11:33 AM 21.0 °F 5.0 °F 14.5 °F 76% 29.68 in 4.0 mi WSW 21.9 mph 28.8 mph N/A Snow Light Snow
11:54 AM 20.7 °F 6.1 °F 14.5 °F 77% 29.69 in 4.0 mi WSW 17.3 mph 26.5 mph N/A Snow Light Snow
12:13 PM 20.8 °F 4.4 °F 14.0 °F 75% 29.69 in 7.0 mi WSW 23.0 mph 27.6 mph N/A Snow Light Snow
12:34 PM 21.2 °F 6.8 °F 15.4 °F 78% 29.69 in 3.0 mi West 17.3 mph - N/A Snow Light Snow
12:53 PM 21.2 °F 5.2 °F 15.8 °F 80% 29.70 in 3.0 mi WSW 21.9 mph 27.6 mph N/A Snow Light Snow
1:13 PM 21.0 °F 5.7 °F 15.8 °F 80% 29.70 in 2.0 mi WSW 19.6 mph 26.5 mph N/A Snow Light Snow
1:34 PM 21.7 °F 5.9 °F 14.4 °F 73% 29.71 in 7.0 mi WSW 21.9 mph 32.2 mph N/A Snow Light Snow
1:53 PM 20.8 °F 6.4 °F 13.8 °F 74% 29.71 in 7.0 mi WSW 17.3 mph 29.9 mph N/A Snow Light Snow
2:13 PM 20.7 °F 4.1 °F 13.3 °F 73% 29.72 in 10.0 mi WSW 23.0 mph 29.9 mph N/A Snow Light Snow
2:34 PM 20.8 °F 4.0 °F 13.3 °F 73% 29.73 in 7.0 mi WSW 24.2 mph 29.9 mph N/A Snow Light Snow
2:53 PM 21.0 °F 5.0 °F 13.8 °F 74% 29.74 in 7.0 mi WSW 21.9 mph 29.9 mph N/A Snow Light Snow
3:13 PM 20.8 °F 6.4 °F 14.4 °F 76% 29.75 in 10.0 mi WSW 17.3 mph 24.2 mph N/A Snow Light Snow
3:34 PM 20.1 °F 4.2 °F 12.6 °F 73% 29.76 in 7.0 mi WSW 20.7 mph 28.8 mph N/A Snow Light Snow
3:53 PM 19.8 °F 4.5 °F 12.7 °F 74% 29.77 in 7.0 mi WSW 18.4 mph 27.6 mph N/A Snow Light Snow
4:13 PM 19.9 °F 5.2 °F 13.5 °F 76% 29.79 in 10.0 mi WSW 17.3 mph 27.6 mph N/A Snow Light Snow
4:33 PM 19.0 °F 2.7 °F 12.7 °F 76% 29.80 in 5.0 mi WSW 20.7 mph 27.6 mph N/A Snow Light Snow
4:54 PM 19.0 °F 4.0 °F 12.7 °F 76% 29.81 in 7.0 mi WSW 17.3 mph 28.8 mph N/A Snow Light Snow
5:14 PM 18.5 °F 2.4 °F 12.7 °F 78% 29.82 in 10.0 mi WSW 19.6 mph 25.3 mph N/A Snow Light Snow
5:33 PM 18.3 °F 1.4 °F 12.4 °F 78% 29.83 in 10.0 mi WSW 21.9 mph 28.8 mph N/A Snow Light Snow
5:53 PM 18.5 °F 4.3 °F 12.7 °F 78% 29.84 in 4.0 mi WSW 15.0 mph 31.1 mph N/A Snow Light Snow
6:14 PM 18.0 °F 2.2 °F 12.9 °F 81% 29.85 in 4.0 mi WSW 18.4 mph 26.5 mph N/A Snow Light Snow
7:34 PM 17.2 °F 3.3 °F 12.7 °F 83% 29.89 in 4.0 mi WSW 13.8 mph 20.7 mph N/A Snow Light Snow
7:53 PM 17.2 °F 2.7 °F 12.9 °F 83% 29.90 in 4.0 mi WSW 15.0 mph 19.6 mph N/A Snow Light Snow
8:13 PM 17.2 °F 3.9 °F 12.9 °F 83% 29.91 in 4.0 mi West 12.7 mph - N/A Snow Light Snow
8:53 PM 16.9 °F 3.4 °F 13.1 °F 85% 29.92 in 3.0 mi WSW 12.7 mph - N/A Snow Light Snow
9:13 PM 17.2 °F 3.9 °F 13.5 °F 85% 29.93 in 5.0 mi West 12.7 mph - N/A Snow Light Snow
9:34 PM 17.4 °F 4.1 °F 13.3 °F 84% 29.94 in 4.0 mi West 12.7 mph - N/A Snow Light Snow
9:53 PM 17.4 °F 4.1 °F 12.7 °F 82% 29.94 in 7.0 mi West 12.7 mph - N/A Snow Light Snow
10:13 PM 17.4 °F 4.7 °F 12.4 °F 81% 29.95 in 10.0 mi West 11.5 mph 20.7 mph N/A Snow Light Snow
10:34 PM 17.4 °F 3.5 °F 12.4 °F 81% 29.95 in 7.0 mi West 13.8 mph 20.7 mph N/A Snow Light Snow
10:53 PM 17.4 °F 4.7 °F 12.7 °F 82% 29.95 in 5.0 mi West 11.5 mph - N/A Snow Light Snow
11:13 PM 17.4 °F 2.9 °F 12.4 °F 81% 29.95 in 7.0 mi West 15.0 mph 19.6 mph N/A Snow Light Snow
11:34 PM 17.2 °F 2.7 °F 12.4 °F 81% 29.95 in 7.0 mi West 15.0 mph 19.6 mph N/A Snow Light Snow
11:53 PM 17.2 °F 4.5 °F 12.6 °F 82% 29.95 in 5.0 mi West 11.5 mph - N/A Snow Light Snow